Content
SEND FEEDBACK

Daily
Averages
Monthly
Summary
India

CHENNAI, INDIA


Home > Asia > India
Elevation: 52 feet     Latitude: 13 00N     Longitude: 080 11E

WEATHER
 
SELECT A DAY
Number of Records: 206,102;   Date Range: 7/1/96 - 10/29/14
 
SHARE

PRINT THIS DATA

[ ← Previous Day ]
WEATHER ALMANAC - FEBRUARY 25, 2013
[ Next Day → ]
[ °C ]   °F
Weather ElementAverageHighLow
Temperature77.8 °F89.6 °F (3:10 pm)68 °F (6:40 am)
Dewpoint66.2 °F70 °F (8:30 pm)57.2 °F (3:40 pm)
Humidity70.3 %100 % (6:40 am)33 % (3:40 pm)
Barometer29.94 in30.02 in (8:30 am)29.89 in (3:40 am)
Wind Speed3.4 mph10.4 mph (1:10 pm)
Weather ElementAverage
Visibility3.3 mi
Wind DirectionE (88.5 °)

Weather ElementTotal
Precipitation---
Cooling Degree Days13.8 (Base 65)
Growing Degree Days28.8 (Base 50)
Averaged from 51 records on February 25, 2013
WEATHER CONDITIONS BREAKOUT
WIND DIRECTION BREAKOUT
WEATHER BY HOUR - FEBRUARY 25, 2013
[ °C ]   °F
Local TimeTemperatureDewpointHumidityBarometerVisibilityWind DirectionWind SpeedGust SpeedPrecipitationEventsConditions
12:40 AM71.6 °F68.0 °F88 %29.95 in2.5 miCalmHaze
1:10 AM71.6 °F68.0 °F88 %29.95 in2.5 miCalmHaze
1:40 AM71.6 °F68.0 °F88 %29.92 in2.5 miCalmHaze
2:10 AM71.6 °F68.0 °F88 %29.92 in2.5 miWest (260°)3.5 mphHaze
2:30 AM72.0 °F68.0 °F84 %29.94 in2.0 miWest (270°)2.3 mph
3:10 AM69.8 °F68.0 °F94 %29.92 in1.2 miWSW (250°)3.5 mphMist
3:40 AM69.8 °F68.0 °F94 %29.89 in1.2 miWNW (300°)3.5 mphPartly Cloudy
4:10 AM69.8 °F68.0 °F94 %29.89 in1.2 miCalmPartly Cloudy
4:40 AM69.8 °F68.0 °F94 %29.89 in1.2 miCalmPartly Cloudy
5:10 AM69.8 °F68.0 °F94 %29.89 in1.2 miCalmPartly Cloudy
5:30 AM69.0 °F67.0 °F92 %29.94 in2.0 miCalmHaze
5:40 AM69.8 °F68.0 °F94 %29.92 in1.2 miCalmPartly Cloudy
6:10 AM69.8 °F68.0 °F94 %29.92 in1.1 miCalmPartly Cloudy
6:40 AM68.0 °F68.0 °F100 %29.95 in0.7 miCalmPartly Cloudy
7:10 AM68.0 °F68.0 °F100 %29.95 in0.6 miCalmFogShallow Fog
7:40 AM69.8 °F69.8 °F100 %29.98 in0.7 miCalmPartly Cloudy
8:30 AM75.0 °F69.0 °F75 %30.02 in2.0 miCalmHaze
9:10 AM77.0 °F69.8 °F78 %30.01 in2.2 miCalmHaze
10:10 AM80.6 °F68.0 °F65 %30.01 in3.7 miNorth (350°)3.5 mphPartly Cloudy
10:40 AM82.4 °F68.0 °F62 %30.01 in3.7 miWSW (250°)3.5 mph
11:10 AM86.0 °F62.6 °F45 %29.98 in3.7 miEast (100°)3.5 mph
11:30 AM85.0 °F66.0 °F43 %30.02 in6.0 miSE (140°)2.3 mph
11:40 AM86.0 °F64.4 °F48 %29.98 in3.7 miESE (120°)6.9 mph
12:10 PM86.0 °F64.4 °F48 %29.95 in4.3 miESE (110°)4.6 mphPartly Cloudy
12:40 PM87.8 °F66.2 °F49 %29.95 in4.3 miEast (100°)6.9 mphPartly Cloudy
1:10 PM87.8 °F66.2 °F49 %29.92 in5.0 miEast (90°)10.4 mph
1:40 PM87.8 °F62.6 °F43 %29.92 in5.0 miESE (120°)5.8 mph
2:10 PM87.8 °F59.0 °F38 %29.92 in5.0 miESE (110°)4.6 mph
2:30 PM87.0 °F63.0 °F35 %29.94 in6.0 miEast (90°)4.6 mphClear
2:40 PM87.8 °F60.8 °F40 %29.89 in5.0 miEast (100°)9.2 mph
3:10 PM89.6 °F59.0 °F36 %29.89 in5.0 miEast (90°)5.8 mph
3:40 PM89.6 °F57.2 °F33 %29.89 in5.0 miEast (100°)6.9 mph
4:10 PM87.8 °F57.2 °F35 %29.89 in5.0 miENE (70°)5.8 mph
4:40 PM87.8 °F59.0 °F38 %29.89 in5.0 miENE (70°)6.9 mph
5:10 PM86.0 °F60.8 °F43 %29.89 in4.3 miENE (60°)5.8 mph
5:30 PM85.0 °F67.0 °F44 %29.92 in6.0 miEast (90°)4.6 mph
5:40 PM84.2 °F59.0 °F42 %29.89 in4.3 miNE (50°)6.9 mph
6:10 PM80.6 °F60.8 °F51 %29.89 in3.7 miENE (70°)8.1 mph
6:40 PM78.8 °F68.0 °F69 %29.92 in3.7 miEast (80°)6.9 mph
7:10 PM77.0 °F68.0 °F74 %29.92 in3.7 miENE (70°)5.8 mph
7:40 PM75.2 °F68.0 °F78 %29.95 in3.7 miNE (50°)5.8 mph
8:10 PM75.2 °F68.0 °F78 %29.95 in3.7 miNE (50°)4.6 mph
8:30 PM77.0 °F70.0 °F73 %29.98 in2.0 miCalm
8:40 PM75.2 °F68.0 °F78 %29.95 in3.7 miNE (50°)4.6 mph
9:10 PM73.4 °F68.0 °F83 %29.98 in3.7 miNE (50°)3.5 mph
9:40 PM75.2 °F69.8 °F83 %29.98 in3.7 miNNE (30°)3.5 mph
10:10 PM73.4 °F69.8 °F88 %29.98 in3.7 miNE (40°)3.5 mph
10:40 PM73.4 °F69.8 °F88 %29.98 in3.7 miNNE (30°)2.3 mph
11:10 PM73.4 °F69.8 °F88 %29.98 in3.7 miNorth (350°)2.3 mph
11:30 PM73.0 °F69.0 °F83 %30.00 in2.0 miCalm
11:40 PM71.6 °F69.8 °F94 %29.98 in3.7 miCalm
Hourly data recorded from VOMM, located miles away from Chennai, India







STORIES FROM OUR PARTNERS